Flag for Canada Weather past 2 weeks in Red Deer, Alberta, Canada

Now
7 °F

Light snow. Overcast.


Feels Like: -6 °F
Forecast: -10 / 4 °F
Wind: 8 mph from North

Location: Red Deer

Current Time: Dec 28, 2014 at 11:03:30 PM

Latest Report: Dec 28, 2014 at 10:00 PM


Visibility: 3 mi

Pressure: 30.82 "Hg

Humidity: 78%

Dew point: 1 °F

Location of Red DeerLocation

Historic Weather in Red Deer — Graph

°F

Red Deer temperature yesterday

Maximum temperature yesterday: 23 °F (at 1:00 PM)
Minimum temperature yesterday: 14 °F (at 8:00 AM)
Average temperature yesterday: 18 °F

Past Weeks' High & Low Weather Summary

 TemperatureHumidityPressure
High37 °F (Dec 21, 4:00 PM)100% (Dec 16, 2:00 AM)30.82 "Hg (Dec 16, 2:00 AM)
Low1 °F (Dec 26, 7:00 AM)59% (Dec 24, 1:00 PM)29.28 "Hg (Dec 21, 5:00 AM)
Average20 °F85%30.02 "Hg
* Reported Dec 13 10:00 PM — Dec 28 10:00 PM, Red Deer, Weather by CustomWeather, © 2014

Note: Actual official high and low records may vary slightly from our data, if they occured in-between our weather recording intervals... More about our weather records

Advertising

Red Deer weather history for previous 24 hours

 ConditionsComfort  
Time TempWeatherWind HumidityBarometerVisibility
10:00 PM
Dec 28
7 °FLight snow. Overcast.8 mph78%30.82 "Hg3 mi
9:00 PM7 °FLight snow. Overcast.10 mph78%30.79 "Hg3 mi
8:00 PM7 °FLight snow. Overcast.10 mph85%30.76 "Hg2 mi
7:00 PM7 °FLight snow. Overcast.10 mph85%30.73 "Hg3 mi
6:00 PM9 °FLight snow. Overcast.7 mph85%30.69 "Hg1 mi
5:00 PM9 °FLight snow. Ice fog.7 mph85%30.65 "Hg2 mi
4:00 PM10 °FLight snow. Ice fog.7 mph79%30.61 "Hg1 mi
3:00 PM10 °FLight snow. Ice fog.8 mph79%30.57 "Hg1 mi
2:00 PM10 °FLight snow. Ice fog.8 mph85%30.54 "Hg1 mi
1:00 PM10 °FLight snow. Overcast.7 mph85%30.53 "Hg1 mi
12:00 PM10 °FLight snow. Ice fog.8 mph85%30.50 "Hg1 mi
11:00 AM12 °FLight snow. Overcast.12 mph85%30.49 "Hg1 mi
10:00 AM12 °FLight snow. Overcast.12 mph79%30.46 "Hg1 mi
9:00 AM12 °FLight snow. Overcast.10 mph79%30.43 "Hg10 mi
8:00 AM12 °FLight snow. Overcast.8 mph79%30.40 "Hg10 mi
7:00 AM12 °FLight snow. Overcast.13 mph73%30.38 "Hg10 mi
6:00 AM12 °FLight snow. Mostly cloudy.13 mph79%30.35 "Hg5 mi
5:00 AM14 °FLight snow. Mostly cloudy.12 mph85%30.30 "Hg2 mi
4:00 AM14 °FLight snow. Low clouds.12 mph92%30.27 "Hg3 mi
3:00 AM16 °FLight snow. Low clouds.8 mph93%30.23 "Hg3 mi
2:00 AM16 °FLight snow. Mostly cloudy.9 mph93%30.20 "Hg2 mi
1:00 AM16 °FLight snow. Low clouds.7 mph86%30.17 "Hg8 mi
12:00 AM16 °FLight snow. Mostly cloudy.8 mph93%30.15 "Hg6 mi
11:00 PM
Dec 27
16 °FIce fog.8 mph93%30.13 "Hg5 mi
Weather by CustomWeather, © 2014

See weather overviewHow to use our weather pages